Dewpoint
53 42 39 30 20 20 14 14 17 19 31 54 57 54 53 55 52 48 65 66 68 67 66 67 69 69 70 69 69 68 68 67 66 67 67 67 66 66 66 66 65 65 65 66 67 66 65 65 66
43 37 35 26 17 11 9 15 19 46 47 52 51 55 55 55 59 61 63 67 68 67 65 65 68 68 69 68 68 68 67 66 66 67 67 66 66 66 66 65 65 65 66 66 67 67 66 66 68
40 37 34 25 17 11 12 14 36 48 50 50 49 56 57 57 60 62 66 67 68 67 66 66 68 68 68 68 67 66 66 66 66 66 66 66 67 66 66 65 64 65 65 64 65 66 67 67 66
35 34 18 16 13 12 13 15 45 46 48 50 51 54 60 62 63 65 67 68 68 67 66 68 68 68 67 67 67 66 66 66 66 65 66 67 66 66 66 65 65 65 64 62 62 64 65 65 65
27 24 21 14 11 11 13 42 48 48 48 51 52 54 56 62 66 67 67 67 67 67 68 68 67 67 67 67 67 66 66 66 66 66 66 66 66 66 66 65 65 65 64 63 63 63 64 64 64
27 20 16 12 12 12 34 47 48 49 49 51 52 53 57 63 62 64 65 66 67 67 67 67 67 67 67 66 66 66 67 66 66 66 66 67 66 66 66 65 65 65 65 64 63 64 63 63 63
27 24 18 16 16 15 38 48 47 47 47 47 54 53 59 60 62 62 63 63 66 66 65 64 65 65 66 66 66 66 66 66 66 66 66 66 65 65 65 64 64 64 65 64 63 63 63 63 63
28 23 18 17 13 14 40 47 48 47 48 56 57 52 55 59 61 62 62 63 63 64 62 60 60 61 64 65 66 66 66 66 66 66 65 64 64 64 64 63 63 63 63 64 63 62 63 63 60
23 23 18 17 16 20 45 45 50 55 53 55 56 57 59 60 60 59 60 60 59 59 58 57 56 61 63 63 65 65 66 66 65 64 63 61 57 58 58 61 61 62 63 63 63 61 60 59 58
24 23 20 20 19 29 43 44 48 51 52 52 55 60 60 59 58 57 58 57 57 56 56 57 61 61 62 60 63 63 63 62 60 58 59 57 60 58 57 59 61 61 62 61 60 58 56 52 46
23 22 22 20 20 38 43 44 46 49 48 51 52 56 59 59 57 57 57 56 55 56 57 58 60 62 62 61 61 61 60 59 59 60 59 60 59 59 57 57 57 58 55 49 49 48 45 48 45
22 22 22 20 40 43 43 44 49 47 49 54 55 57 59 57 56 56 56 56 56 56 56 59 58 59 60 62 58 59 57 57 57 58 60 60 59 58 57 57 54 53 50 50 49 48 49 48 46
22 20 24 34 42 42 43 43 47 50 54 56 56 57 57 57 55 55 56 55 56 55 56 56 58 58 62 61 59 58 58 58 60 59 60 60 60 59 58 56 53 51 49 49 48 48 46 46 44
26 28 39 43 42 43 44 47 45 52 55 55 54 53 55 56 56 56 56 55 54 54 56 57 57 59 62 60 59 58 58 58 59 58 61 61 61 59 57 54 51 50 49 49 48 47 45 43 43
29 31 36 41 41 43 41 36 44 53 54 54 54 54 56 55 56 57 55 56 56 56 56 56 58 62 63 60 59 58 58 59 59 61 62 60 60 58 56 54 50 50 50 50 49 48 46 43 40
21 24 23 37 40 41 32 31 46 54 52 52 53 52 52 55 56 57 57 57 58 56 56 56 58 61 63 60 59 59 61 62 62 62 61 59 59 57 55 52 50 51 50 49 48 46 43 42 40
25 19 25 35 39 39 34 33 44 53 51 49 51 51 53 52 54 55 56 57 58 58 58 57 59 61 63 61 60 61 61 62 62 62 61 60 58 56 54 51 51 51 49 48 45 45 43 40 39
23 23 24 23 27 37 37 32 46 51 50 49 50 51 53 53 51 54 55 55 56 58 59 59 61 62 62 61 60 60 61 61 62 62 61 59 57 54 52 51 51 48 46 45 43 43 43 41 40
27 25 24 25 25 31 35 34 42 49 50 50 50 51 53 53 54 53 55 56 56 57 59 59 61 62 60 60 59 59 60 61 61 60 60 58 55 52 52 49 48 47 45 44 45 43 43 41 42
27 25 24 26 23 26 24 27 36 46 48 49 50 51 52 53 53 53 54 55 56 56 58 61 61 61 60 60 58 58 59 58 58 57 55 56 53 51 50 48 46 45 44 45 45 44 41 42 41
26 25 25 25 26 24 25 24 32 41 45 47 49 50 51 52 53 52 54 55 56 56 58 60 60 60 59 59 58 56 55 54 54 52 51 52 51 49 48 48 45 45 45 42 43 42 42 37 40
24 26 27 27 24 18 23 16 22 34 40 43 46 48 49 50 52 53 53 55 56 56 58 59 60 60 59 59 58 57 56 54 54 52 49 49 49 48 46 45 45 43 41 41 41 40 41 40 36
26 30 29 27 25 24 24 19 20 29 33 40 43 45 47 49 50 52 54 54 56 58 60 60 60 60 59 59 59 59 57 57 54 50 49 48 47 46 43 42 42 41 39 41 42 43 42 41 41
30 28 26 29 28 24 24 23 22 26 28 33 39 44 44 46 48 49 53 56 56 59 60 61 60 59 59 58 58 57 57 54 52 48 46 45 43 41 41 39 40 40 39 41 42 43 43 41 40
28 26 23 20 26 23 28 25 26 27 28 30 33 37 43 45 47 47 49 53 56 58 59 60 59 59 59 58 57 57 56 54 52 49 46 44 42 40 39 39 39 38 39 41 42 41 41 41 39
28 26 26 17 21 19 27 23 20 29 30 34 36 35 35 42 46 46 47 50 55 57 59 59 59 59 58 58 58 57 56 54 54 51 47 44 42 40 39 39 39 39 39 39 39 39 38 39 39
27 25 27 29 30 27 24 25 24 27 31 34 36 37 35 38 43 45 47 49 53 57 58 59 59 59 59 59 58 57 56 55 53 50 47 46 42 39 40 40 41 41 39 38 37 37 37 39 41
29 29 27 28 23 21 21 21 18 23 26 30 33 36 38 42 41 45 47 50 52 56 57 59 59 58 59 59 58 57 57 56 53 49 46 45 42 40 39 41 42 38 37 37 37 36 36 38 39
28 27 27 26 27 22 20 20 28 25 27 31 32 33 39 41 45 47 49 53 54 56 57 57 58 58 58 57 57 57 55 54 52 50 47 44 42 40 38 41 38 37 35 35 35 35 35 36 37
28 30 29 30 23 27 27 22 26 29 27 27 29 31 38 40 44 48 52 54 56 57 57 57 57 57 56 55 53 53 53 51 50 49 47 44 42 39 38 38 36 36 34 34 34 34 36 35 35
Lifted_Index
5 6 6 5 5 5 4 3 2 0 -2 -3 -4 -4 -4 -4 -4 -4 -4 -5 -5 -4 -4 -3 -3 -3 -3 -3 -3 -3 -2 -1 -0 -0 -0 -0 -0 -0 -0 -1 -1 -1 -1 -2 -2 -2 -2 -1 -2
5 5 5 5 5 4 4 2 1 -1 -2 -3 -4 -4 -4 -4 -4 -4 -4 -5 -5 -4 -3 -3 -3 -3 -3 -3 -3 -2 -1 -1 -0 -0 -0 -0 -0 -0 -1 -1 -1 -1 -1 -2 -2 -2 -2 -2 -2
4 4 4 4 4 4 3 2 0 -2 -3 -3 -3 -4 -5 -5 -4 -4 -5 -5 -5 -4 -3 -3 -3 -3 -3 -3 -2 -1 -1 -0 -0 -0 -1 -1 -1 -1 -1 -1 -1 -1 -1 -1 -1 -2 -2 -1 -1
4 4 4 4 4 3 2 1 -1 -2 -3 -3 -4 -4 -5 -5 -5 -5 -5 -5 -5 -4 -3 -3 -3 -3 -2 -2 -1 -0 -0 -0 -0 -1 -1 -1 -1 -1 -1 -1 -1 -1 -1 -0 -0 -1 -1 -0 0
4 4 4 4 3 2 1 -1 -2 -3 -3 -3 -4 -4 -5 -5 -5 -5 -5 -5 -4 -4 -3 -3 -3 -2 -1 -1 -1 -0 -0 -1 -1 -1 -1 -1 -1 -1 -2 -2 -2 -2 -1 0 0 0 1 1 2
4 3 3 3 2 1 -1 -2 -3 -4 -3 -3 -4 -4 -4 -5 -5 -5 -5 -4 -4 -3 -3 -2 -2 -1 -1 -1 -1 -1 -1 -1 -1 -1 -1 -1 -1 -1 -2 -2 -2 -2 -1 -0 1 1 1 2 2
3 3 2 2 0 -1 -2 -3 -4 -4 -3 -3 -4 -4 -4 -4 -4 -4 -5 -4 -4 -3 -2 -1 -0 0 0 -1 -1 -1 -1 -1 -1 -1 -1 -1 -1 -1 -2 -2 -2 -1 -1 0 1 2 2 2 3
3 2 2 1 -1 -2 -3 -3 -4 -4 -4 -4 -4 -4 -4 -4 -3 -4 -4 -4 -3 -2 -2 -0 1 2 1 0 -0 -1 -1 -0 -0 -0 -0 -0 -1 -1 -1 -1 -0 0 0 1 2 2 2 3 3
2 2 1 0 -0 -1 -2 -3 -4 -4 -4 -4 -4 -4 -3 -3 -3 -3 -3 -2 -2 -1 -0 1 3 3 2 1 1 -0 0 0 1 0 0 -0 -1 -1 -0 0 1 1 1 2 2 3 3 4 4
1 1 1 0 0 -0 -2 -3 -3 -3 -3 -3 -3 -3 -3 -2 -2 -2 -2 -1 -1 0 1 2 3 4 3 2 2 1 1 1 1 1 -0 -1 -1 -0 0 1 2 2 2 2 3 3 3 4 4
0 0 0 1 1 0 -1 -2 -3 -3 -3 -2 -2 -3 -2 -2 -2 -1 -1 -1 1 2 2 3 4 4 4 3 3 2 2 2 1 0 -0 -1 -1 0 1 2 2 2 2 2 3 3 3 4 4
-0 -0 -0 0 -0 -1 -2 -2 -2 -2 -2 -2 -2 -2 -2 -1 -1 -1 -0 0 2 3 4 4 4 4 4 3 3 3 2 1 0 -0 -1 -1 -0 1 1 2 2 2 2 2 3 3 3 4 4
-1 -1 -0 -0 -1 -2 -2 -2 -2 -2 -2 -1 -1 -1 -1 -1 -0 0 1 2 2 3 4 5 5 4 3 3 3 2 1 1 0 0 -0 -1 -0 1 1 1 1 2 2 2 3 3 3 4 4
-1 -1 -1 -1 -2 -2 -2 -1 -1 -2 -2 -2 -1 -1 -1 -1 -0 0 1 2 3 3 3 4 3 2 1 1 2 2 1 1 0 0 -0 -0 0 1 1 1 1 2 2 3 3 3 3 5 5
-1 -1 -1 -2 -2 -2 -2 -1 -1 -2 -3 -2 -1 -1 -2 -2 -1 -0 0 1 1 1 2 1 1 -0 -1 -0 1 1 1 0 -0 -0 -1 -0 0 1 1 1 1 2 2 3 3 4 5 6 7
-1 -1 -1 -2 -2 -2 -1 -1 -2 -3 -3 -2 -2 -2 -2 -2 -2 -1 -0 -0 -0 -0 -0 -0 -1 -2 -2 -1 0 0 -0 -1 -1 -1 -1 -1 0 1 1 1 1 2 2 3 4 5 6 7 8
-0 -0 -1 -1 -2 -2 -1 -1 -2 -3 -3 -2 -2 -2 -2 -2 -1 -1 -1 -1 -1 -1 -1 -1 -2 -2 -3 -2 -0 -0 -1 -1 -2 -2 -1 -0 -0 0 0 1 1 2 2 3 5 6 7 8 9
-0 -0 -1 -1 -1 -1 -1 -1 -2 -3 -3 -2 -2 -2 -2 -2 -1 -1 -1 -1 -1 -1 -1 -1 -2 -2 -2 -2 -0 -0 -1 -1 -2 -2 -1 -0 -0 0 0 1 1 1 2 4 6 7 7 9 10
-0 -0 -0 -0 -0 -1 -1 -1 -2 -3 -3 -3 -3 -3 -3 -3 -2 -2 -1 -1 -1 -1 -2 -2 -2 -2 -2 -2 -1 -0 -1 -1 -1 -1 -1 -0 0 1 1 1 1 2 3 5 6 7 7 8 10
-0 -0 -0 0 0 0 -0 -0 -1 -2 -3 -3 -3 -3 -3 -3 -3 -2 -2 -1 -1 -1 -2 -2 -2 -2 -2 -2 -1 -1 -1 -1 -1 -1 -1 0 1 1 1 1 2 3 5 6 6 6 6 7 9
0 0 -0 0 0 0 0 0 -0 -1 -2 -3 -3 -3 -3 -3 -3 -2 -2 -2 -1 -1 -2 -2 -3 -3 -3 -2 -2 -1 -1 -1 -1 -1 -0 1 1 2 2 2 3 4 5 6 6 6 6 5 6
1 1 0 0 0 0 1 1 1 -0 -1 -2 -3 -3 -3 -3 -3 -3 -2 -2 -2 -2 -2 -2 -3 -3 -3 -3 -3 -2 -1 -1 -1 -1 -0 1 2 2 3 4 4 5 6 6 7 6 5 4 3
1 1 1 1 1 1 1 1 1 1 -0 -1 -2 -3 -3 -3 -3 -3 -3 -3 -3 -2 -2 -2 -2 -3 -3 -3 -3 -2 -2 -1 -1 -1 -0 0 1 2 3 4 5 6 6 7 7 5 4 4 4
1 1 1 1 1 1 1 1 1 1 1 0 -1 -2 -2 -3 -3 -3 -3 -3 -3 -3 -2 -2 -2 -2 -3 -3 -3 -2 -2 -1 -1 -1 -1 -0 1 2 3 4 5 5 6 7 6 4 4 5 7
1 1 1 1 1 1 1 1 1 1 1 1 0 -0 -1 -2 -2 -3 -3 -3 -3 -3 -3 -3 -2 -2 -2 -2 -2 -2 -2 -2 -1 -1 -1 -0 0 1 2 3 4 5 6 7 5 4 5 8 9
1 1 1 1 1 1 2 2 1 1 1 1 1 0 0 -0 -1 -2 -2 -3 -3 -3 -3 -3 -3 -3 -2 -2 -2 -2 -2 -2 -1 -1 -1 -1 -0 0 2 3 4 6 7 6 5 5 8 10 10
1 1 1 1 1 1 2 2 2 1 1 1 1 1 0 0 0 -0 -1 -2 -2 -3 -3 -3 -3 -3 -2 -2 -2 -2 -2 -2 -1 -1 -1 -1 -0 1 2 3 5 6 6 6 6 7 10 10 10
1 1 1 1 1 1 2 2 2 2 1 1 1 1 0 0 0 0 -0 -1 -2 -2 -2 -2 -2 -3 -3 -2 -2 -2 -2 -2 -2 -1 -1 -1 -0 1 2 3 5 6 6 6 7 9 10 10 10
1 1 1 1 1 1 2 2 2 1 1 1 1 1 1 0 0 0 -0 -1 -1 -2 -2 -2 -2 -2 -2 -2 -2 -2 -2 -2 -2 -1 -1 -1 0 1 2 4 6 7 7 8 10 10 10 10 11
1 1 1 1 1 2 2 2 2 1 1 1 1 1 1 1 0 -0 -1 -1 -2 -2 -2 -2 -2 -2 -2 -2 -2 -2 -2 -2 -2 -1 -1 -0 0 1 3 5 7 7 9 10 11 10 10 11 11